Location: Skalnate Pleso
(49.1889°N, 20.2450°E)
Time: 00:28:36
(UTC+02:00)

Cosmos 1269 Rocket - Pass Details

Date: 21 February 2020
Orbit: 772 x 780 km, 74.1° (Epoch: 05 April)

Event Time Altitude Azimuth Distance (km) Brightness Sun altitude
Exits shadow 04:52:42 12° 322° (NW) 2,182 6.0 -17.9°
Drops below altitude 10° 04:54:40 10° 345° (NNW) 2,331 6.4 -17.6°
Sets 04:58:46 0° 15° (NNE) 3,264 7.5 -16.9°
